OBJECT B, 100781

Orbit data source: Space-Track

You're viewing an uncataloged RSO

Recently launched and/or uncataloged RSOs may have evolving metadata. Metadata may include the following, but is not limited to: Owner, Manufacturer, Bus, Motor, and Mission.

OBJECT B, 100781 is a Chinese satellite in SSO that was launched on Mon, 21 Sep 2026 UTC launched from the Jiuquan Satellite Launch Center, China (JSC). Unknown objects in Earth's orbit typically refer to objects detected orbiting the Earth but have not yet been identified or cataloged. These objects could be anything from previously untracked satellites, spent rocket stages, debris from satellite collisions, or even natural meteoroids temporarily captured by Earth's gravity.

Loading next visibility...
Identifier
100781, 2026-220B
Orbit
SSO
Country
Flag of CNCN / PRC
Related business
None
Manufacturer
Unknown
Mission
Operational spacecraft
Bus & Motor
Unknown
Mass
Unknown
Launch date (UTC)
Icon of a cake. It is the launch day of the satellite!2026-09-21 (11 hours ago)
Launch vehicle
Unknown
Launch site
Jiuquan Satellite Launch Center, China (JSC)
Object type
Unknown
Shape & HBR
Unknown
Radar Cross Section
RCS unknown

Expand to show TLE details & history
Last TLE update: 18 hours ago

TLE from 18 hours ago
0 OBJECT B
1 A0781U 26220B   26264.20625780  .00002364  00000-0  14642-3 0  9993
2 A0781  97.5442 337.6637 0013805 275.8085  84.1571 15.10690804   163
Epoch: 2026-09-21T04:57Z
TLE epoch observation values (Epoch: 2026-09-21T04:57:00.673Z)
Latitude
-0.00003°
Longitude
-96.67852°
Altitude
536.207 km
Speed
7.595 km/s
True Right ascension
22h 30m 39s
True Declination
0° 00' 00"
Sunlit
Object was in full shadow at epoch
Visualization orbit readout
Latitude
Unknown
Longitude
Unknown
Altitude
Unknown
Speed
Unknown
Apparent Right ascension
Unknown
Apparent Declination
Unknown
Sunlit
N/A
Visualization observer readout
Local Sidereal Time
15:37:07
Azimuth
Unknown
Elevation
Unknown
Doppler factor
Unknown
Orbital elements
Apogee altitude
540.614 km
Perigee altitude
521.538 km
Semi-major axis
6,909.213 km
Eccentricity
0.00138
Inclination
97.5442°
RAAN
337.6637°
Arg. of periapsis
275.8085°
True anomaly
84.3145°
Mean anomaly
84.1571°
Eccentric anomaly
84.2358°
Mean motion
3.7792 °/min
Orbital period
95.26 mins
BSTAR
0.00014642
Loading maneuver chart data...
Computing Atmospheric mass density...
Loading historical data...
Loading historical data...
Loading historical data...
Loading historical data...
Loading historical data...
Loading historical data...
Loading historical data...

Documentation

Showing up to 5 results
|